User: anonymous   Login
Location: Pine Mountain Observatory
(43.7910°N, 120.9377°W)
Time: 06:57:17
(UTC-07:00)
Language:

IDEFIX/ARIANE 42P - Orbit

View from above orbital plane
View from above orbital plane
View from above satellite
View from above satellite

Ground track
Ground track

The orbit data is extracted from the following two-line orbital elements,

1 27422U 02021B   15241.64834047  .00000037  00000-0  30586-4 0  9997
2 27422 098.2533 267.0454 0012956 031.4210 328.7745 14.29204983692758
Epoch (UTC): 29 August 2015 15:33:36
Eccentricity: 0.0012956
inclination: 98.2533°
perigee height: 785 km
apogee height: 803 km
right ascension of ascending node: 267.0454°
argument of perigee: 31.4210°
revolutions per day: 14.29204983
mean anomaly at epoch: 328.7745°
orbit number at epoch: 69275

The dashed part of the orbit path shows where the satellite is in the earth's shadow,  

DLR